Total_Precipitation_Accumulation
0.05 0.07 0.08 0.14 0.10 0.04 0.05 0.08 0.03 0.03 0.04 0.01 0.03 0.04 0.02 0.02 0.06 0.10 0.14 0.30 0.52 0.58 0.44 0.30 0.20 0.15 0.13 0.13 0.14 0.12 0.10 0.10 0.10 0.09 0.08 0.06 0.05 0.04 0.03 0.02 0.05 0.07 0.07
0.03 0.07 0.06 0.08 0.05 0.06 0.08 0.04 0.04 0.05 0.05 0.01 0.01 0.01 0.01 0.01 0.04 0.09 0.17 0.28 0.47 0.72 0.78 0.60 0.45 0.34 0.25 0.19 0.16 0.15 0.12 0.10 0.10 0.10 0.10 0.06 0.05 0.04 0.03 0.03 0.07 0.10 0.11
0.04 0.09 0.06 0.04 0.06 0.08 0.07 0.07 0.10 0.07 0.07 0.02 0.01 0.01 0.01 0.03 0.04 0.04 0.09 0.21 0.28 0.38 0.58 0.68 0.68 0.59 0.39 0.25 0.17 0.11 0.09 0.09 0.09 0.09 0.09 0.07 0.04 0.03 0.03 0.04 0.07 0.07 0.08
0.05 0.11 0.10 0.07 0.13 0.15 0.11 0.10 0.07 0.06 0.07 0.04 0.03 0.01 0.00 0.01 0.03 0.02 0.03 0.04 0.05 0.07 0.12 0.19 0.25 0.35 0.40 0.35 0.26 0.15 0.10 0.07 0.06 0.06 0.05 0.04 0.03 0.04 0.04 0.04 0.04 0.04 0.06
0.16 0.18 0.18 0.13 0.13 0.20 0.18 0.13 0.09 0.11 0.06 0.05 0.03 0.03 0.01 0.00 0.01 0.01 0.01 0.01 0.00 0.01 0.02 0.03 0.05 0.08 0.13 0.18 0.24 0.23 0.17 0.11 0.07 0.05 0.04 0.03 0.02 0.04 0.04 0.03 0.03 0.04 0.05
0.32 0.30 0.30 0.26 0.22 0.25 0.28 0.20 0.21 0.18 0.15 0.12 0.08 0.05 0.02 0.01 0.00 0.00 0.00 0.00 0.00 0.00 0.00 0.00 0.01 0.01 0.02 0.04 0.07 0.12 0.15 0.12 0.08 0.06 0.05 0.03 0.02 0.03 0.03 0.03 0.04 0.04 0.04
0.47 0.43 0.35 0.40 0.39 0.37 0.43 0.40 0.42 0.37 0.27 0.15 0.22 0.21 0.08 0.02 0.01 0.01 0.00 0.00 0.00 0.00 0.00 0.00 0.00 0.00 0.00 0.00 0.01 0.03 0.06 0.08 0.07 0.06 0.05 0.04 0.02 0.03 0.03 0.03 0.05 0.06 0.04
0.65 0.57 0.48 0.53 0.49 0.58 0.73 0.66 0.61 0.55 0.40 0.25 0.34 0.44 0.23 0.10 0.03 0.01 0.01 0.00 0.00 0.00 0.00 0.00 0.00 0.00 0.00 0.00 0.00 0.00 0.01 0.03 0.06 0.06 0.04 0.03 0.03 0.03 0.02 0.03 0.05 0.08 0.05
0.88 0.81 0.76 0.72 0.64 0.65 0.82 0.87 0.83 0.74 0.62 0.44 0.38 0.40 0.36 0.28 0.12 0.02 0.01 0.00 0.00 0.00 0.00 0.00 0.00 0.00 0.00 0.00 0.00 0.00 0.00 0.00 0.03 0.05 0.05 0.04 0.03 0.03 0.02 0.03 0.07 0.08 0.04
0.89 0.91 0.90 0.89 0.78 0.68 0.75 0.89 0.94 0.92 0.91 0.74 0.55 0.40 0.30 0.27 0.20 0.09 0.02 0.00 0.00 0.00 0.00 0.00 0.00 0.00 0.00 0.00 0.00 0.00 0.00 0.00 0.01 0.03 0.04 0.05 0.05 0.05 0.04 0.04 0.08 0.09 0.06
0.74 0.74 0.80 0.89 0.84 0.74 0.77 0.94 1.04 1.11 1.01 0.88 0.71 0.63 0.56 0.46 0.27 0.19 0.14 0.05 0.01 0.00 0.00 0.00 0.00 0.00 0.00 0.00 0.00 0.00 0.00 0.00 0.00 0.01 0.02 0.04 0.06 0.07 0.07 0.07 0.07 0.07 0.09
0.68 0.62 0.68 0.75 0.82 0.79 0.78 0.83 0.95 1.03 1.07 1.07 0.92 0.73 0.67 0.61 0.52 0.40 0.27 0.18 0.09 0.02 0.00 0.00 0.00 0.00 0.00 0.00 0.00 0.00 0.00 0.00 0.00 0.01 0.01 0.02 0.03 0.06 0.08 0.10 0.08 0.07 0.08
0.67 0.66 0.64 0.70 0.77 0.78 0.84 0.93 0.92 0.90 0.98 1.02 0.98 0.88 0.80 0.65 0.48 0.50 0.42 0.28 0.20 0.10 0.03 0.00 0.00 0.00 0.00 0.00 0.00 0.00 0.00 0.00 0.00 0.00 0.01 0.01 0.02 0.03 0.06 0.13 0.17 0.19 0.25
0.47 0.48 0.54 0.62 0.73 0.78 0.84 0.89 0.91 0.91 0.92 0.92 0.95 0.94 0.93 0.87 0.66 0.55 0.53 0.48 0.38 0.26 0.14 0.05 0.02 0.01 0.00 0.00 0.00 0.00 0.00 0.00 0.00 0.00 0.00 0.01 0.01 0.02 0.04 0.07 0.13 0.20 0.40
0.27 0.27 0.34 0.45 0.57 0.66 0.73 0.77 0.81 0.87 0.87 0.83 0.86 0.87 0.84 0.85 0.79 0.63 0.53 0.50 0.51 0.43 0.35 0.24 0.11 0.04 0.02 0.00 0.00 0.00 0.00 0.00 0.00 0.00 0.00 0.00 0.01 0.01 0.02 0.02 0.03 0.04 0.10
0.23 0.27 0.30 0.35 0.41 0.51 0.61 0.66 0.71 0.76 0.72 0.67 0.67 0.69 0.72 0.78 0.83 0.77 0.69 0.59 0.54 0.51 0.44 0.33 0.18 0.08 0.05 0.03 0.01 0.00 0.00 0.00 0.00 0.00 0.00 0.00 0.01 0.01 0.01 0.01 0.01 0.01 0.01
0.30 0.25 0.27 0.36 0.35 0.38 0.46 0.55 0.68 0.78 0.72 0.67 0.60 0.59 0.66 0.72 0.87 0.92 0.86 0.73 0.65 0.58 0.50 0.39 0.20 0.12 0.09 0.06 0.04 0.02 0.00 0.00 0.00 0.00 0.00 0.00 0.01 0.01 0.00 0.00 0.00 0.00 0.00
0.17 0.17 0.21 0.26 0.30 0.35 0.41 0.51 0.61 0.68 0.69 0.62 0.55 0.51 0.54 0.61 0.74 0.86 0.95 0.85 0.75 0.65 0.60 0.53 0.30 0.17 0.12 0.09 0.05 0.02 0.01 0.00 0.00 0.00 0.00 0.00 0.01 0.01 0.01 0.00 0.00 0.00 0.00
0.10 0.14 0.19 0.24 0.26 0.30 0.37 0.42 0.47 0.49 0.44 0.42 0.42 0.41 0.45 0.48 0.55 0.65 0.77 0.83 0.77 0.67 0.64 0.64 0.46 0.26 0.16 0.11 0.07 0.03 0.01 0.01 0.00 0.00 0.00 0.00 0.00 0.01 0.01 0.00 0.00 0.00 0.00
0.07 0.09 0.13 0.15 0.20 0.23 0.28 0.30 0.32 0.38 0.34 0.27 0.23 0.24 0.28 0.31 0.35 0.44 0.54 0.63 0.71 0.72 0.71 0.69 0.57 0.38 0.25 0.16 0.09 0.05 0.04 0.02 0.01 0.00 0.00 0.00 0.00 0.00 0.01 0.00 0.00 0.00 0.00
0.08 0.09 0.15 0.20 0.23 0.24 0.27 0.29 0.26 0.31 0.31 0.27 0.23 0.21 0.18 0.19 0.22 0.28 0.37 0.51 0.60 0.64 0.66 0.66 0.59 0.44 0.31 0.20 0.11 0.07 0.04 0.04 0.02 0.00 0.00 0.00 0.00 0.00 0.00 0.00 0.00 0.00 0.00
0.13 0.14 0.16 0.21 0.28 0.26 0.34 0.36 0.32 0.31 0.29 0.23 0.20 0.22 0.25 0.22 0.16 0.14 0.17 0.27 0.38 0.46 0.51 0.54 0.54 0.44 0.31 0.23 0.17 0.11 0.05 0.02 0.01 0.01 0.00 0.00 0.00 0.00 0.00 0.00 0.00 0.00 0.00
0.17 0.19 0.20 0.23 0.30 0.39 0.40 0.32 0.35 0.33 0.28 0.22 0.17 0.18 0.23 0.24 0.28 0.24 0.19 0.18 0.19 0.26 0.39 0.48 0.48 0.45 0.47 0.35 0.23 0.14 0.08 0.04 0.02 0.02 0.01 0.00 0.00 0.00 0.00 0.00 0.00 0.00 0.00
0.21 0.22 0.24 0.26 0.28 0.38 0.37 0.32 0.43 0.40 0.36 0.33 0.26 0.22 0.22 0.22 0.24 0.33 0.38 0.32 0.26 0.28 0.41 0.31 0.30 0.47 0.51 0.42 0.30 0.21 0.16 0.12 0.07 0.03 0.01 0.00 0.00 0.00 0.00 0.00 0.00 0.00 0.00
0.28 0.26 0.24 0.25 0.28 0.33 0.35 0.29 0.32 0.35 0.38 0.34 0.29 0.26 0.25 0.26 0.33 0.38 0.38 0.36 0.33 0.34 0.55 0.58 0.55 0.51 0.46 0.38 0.32 0.29 0.21 0.13 0.08 0.05 0.03 0.01 0.00 0.00 0.00 0.00 0.00 0.00 0.00
0.38 0.33 0.30 0.27 0.29 0.30 0.37 0.23 0.25 0.28 0.33 0.38 0.36 0.29 0.35 0.32 0.33 0.29 0.24 0.27 0.28 0.35 0.40 0.41 0.41 0.38 0.32 0.28 0.26 0.24 0.24 0.19 0.12 0.08 0.04 0.03 0.01 0.01 0.00 0.00 0.00 0.00 0.00